| time (UTC) | temp F | wind direction | speed MPH | gust MPH | rain 1hr in | rain 24hr in | rain mn in | humidity % | barometer mb |
| 20260505204530 | 57 | 48 | 3.0 | 10.0 | 0.05 | 0.05 | 0.05 | 91 | 1008.3 |
| 20260505203028 | 60 | 129 | 10.0 | 15.0 | 0.02 | 0.02 | 0.02 | 79 | 1007.5 |
| 20260505201533 | 71 | 316 | 4.0 | 15.0 | 0.00 | 0.00 | 0.00 | 44 | 1006.4 |
| 20260505200034 | 72 | 45 | 4.0 | 14.0 | 0.00 | 0.00 | 0.00 | 42 | 1006.2 |
| 20260505194532 | 74 | 67 | 3.0 | 12.0 | 0.00 | 0.00 | 0.00 | 40 | 1006.0 |
| 20260505193032 | 75 | 50 | 5.0 | 14.0 | 0.00 | 0.00 | 0.00 | 39 | 1006.4 |
| 20260505191533 | 75 | 9 | 4.0 | 11.0 | 0.00 | 0.00 | 0.00 | 39 | 1006.1 |
| 20260505190036 | 76 | 71 | 4.0 | 13.0 | 0.00 | 0.00 | 0.00 | 38 | 1006.5 |
| 20260505184533 | 76 | 43 | 5.0 | 12.0 | 0.00 | 0.00 | 0.00 | 37 | 1006.9 |
| 20260505183037 | 76 | 30 | 6.0 | 13.0 | 0.00 | 0.00 | 0.00 | 37 | 1006.8 |
| 20260505181532 | 76 | 65 | 4.0 | 14.0 | 0.00 | 0.00 | 0.00 | 37 | 1007.2 |
| 20260505180045 | 75 | 38 | 4.0 | 18.0 | 0.00 | 0.00 | 0.00 | 39 | 1007.1 |
| 20260505174538 | 75 | 239 | 3.0 | 12.0 | 0.00 | 0.00 | 0.00 | 38 | 1007.5 |
| 20260505173031 | 75 | 59 | 6.0 | 15.0 | 0.00 | 0.00 | 0.00 | 38 | 1007.4 |
| 20260505171533 | 75 | 41 | 4.0 | 13.0 | 0.00 | 0.00 | 0.00 | 41 | 1007.3 |
| 20260505170030 | 75 | 40 | 6.0 | 19.0 | 0.00 | 0.00 | 0.00 | 40 | 1007.4 |
| 20260505164529 | 75 | 70 | 6.0 | 20.0 | 0.00 | 0.00 | 0.00 | 40 | 1007.6 |
| 20260505163033 | 74 | 66 | 4.0 | 18.0 | 0.00 | 0.00 | 0.00 | 44 | 1007.7 |
| 20260505161533 | 74 | 347 | 4.0 | 13.0 | 0.00 | 0.00 | 0.00 | 45 | 1008.0 |
| 20260505153030 | 72 | 110 | 4.0 | 13.0 | 0.00 | 0.00 | 0.00 | 46 | 1008.5 |
| 20260505151532 | 72 | 93 | 4.0 | 13.0 | 0.00 | 0.00 | 0.00 | 47 | 1008.3 |
| 20260505124536 | 62 | 57 | 3.0 | 8.0 | 0.00 | 0.00 | 0.00 | 61 | 1008.8 |
| 20260505123036 | 62 | 22 | 2.0 | 8.0 | 0.00 | 0.00 | 0.00 | 61 | 1009.3 |
| 20260505121530 | 62 | 47 | 3.0 | 12.0 | 0.00 | 0.00 | 0.00 | 61 | 1009.3 |
| 20260505120030 | 60 | 48 | 2.0 | 9.0 | 0.00 | 0.00 | 0.00 | 63 | 1009.1 |
| 20260505114532 | 59 | 78 | 2.0 | 11.0 | 0.00 | 0.00 | 0.00 | 65 | 1009.0 |
| 20260505113041 | 58 | 221 | 2.0 | 5.0 | 0.00 | 0.00 | 0.00 | 66 | 1008.9 |
| 20260505111533 | 57 | 0 | 1.0 | 5.0 | 0.00 | 0.00 | 0.00 | 67 | 1009.1 |
| 20260505101549 | 56 | 88 | 2.0 | 8.0 | 0.00 | 0.00 | 0.00 | 67 | 1008.4 |
| 20260505100055 | 56 | 111 | 3.0 | 11.0 | 0.00 | 0.00 | 0.00 | 68 | 1008.1 |
| 20260505094534 | 56 | 344 | 1.0 | 12.0 | 0.00 | 0.00 | 0.00 | 67 | 1007.9 |
| 20260505093031 | 56 | 32 | 2.0 | 7.0 | 0.00 | 0.00 | 0.00 | 67 | 1007.8 |
| 20260505091530 | 55 | 137 | 2.0 | 7.0 | 0.00 | 0.00 | 0.00 | 66 | 1007.9 |
| 20260505090029 | 55 | 334 | 2.0 | 8.0 | 0.00 | 0.00 | 0.00 | 66 | 1007.6 |
| 20260505084535 | 55 | 36 | 1.0 | 4.0 | 0.00 | 0.00 | 0.00 | 67 | 1007.7 |
| 20260505083031 | 55 | 325 | 1.0 | 6.0 | 0.00 | 0.00 | 0.00 | 66 | 1007.8 |
| 20260505081529 | 55 | 9 | 1.0 | 4.0 | 0.00 | 0.00 | 0.00 | 65 | 1007.9 |
| 20260505080029 | 55 | 309 | 1.0 | 6.0 | 0.00 | 0.00 | 0.00 | 64 | 1007.8 |
| 20260505074529 | 56 | 0 | 1.0 | 4.0 | 0.00 | 0.00 | 0.00 | 63 | 1007.9 |
| 20260505073036 | 57 | 57 | 2.0 | 6.0 | 0.00 | 0.00 | 0.00 | 61 | 1008.1 |
| 20260505071531 | 57 | 44 | 1.0 | 5.0 | 0.00 | 0.00 | 0.00 | 61 | 1008.1 |
| 20260505070030 | 57 | 0 | 3.0 | 11.0 | 0.00 | 0.00 | 0.00 | 60 | 1008.1 |
| 20260505064527 | 57 | 83 | 2.0 | 10.0 | 0.00 | 0.00 | 0.00 | 60 | 1008.2 |
| 20260505063027 | 57 | 51 | 2.0 | 8.0 | 0.00 | 0.00 | 0.00 | 59 | 1008.0 |
| 20260505061538 | 56 | 76 | 2.0 | 9.0 | 0.00 | 0.00 | 0.00 | 60 | 1008.0 |
| 20260505060031 | 56 | 38 | 3.0 | 10.0 | 0.00 | 0.00 | 0.00 | 60 | 1008.0 |
| 20260505054529 | 55 | 41 | 2.0 | 8.0 | 0.00 | 0.00 | 0.00 | 60 | 1008.1 |
| 20260505053038 | 55 | 34 | 2.0 | 5.0 | 0.00 | 0.00 | 0.00 | 60 | 1008.2 |
| 20260505051539 | 55 | 41 | 2.0 | 8.0 | 0.00 | 0.00 | 0.00 | 60 | 1008.7 |
| 20260505041530 | 55 | 73 | 2.0 | 6.0 | 0.00 | 0.00 | 0.00 | 59 | 1008.2 |
| 20260505040034 | 56 | 300 | 2.0 | 5.0 | 0.00 | 0.00 | 0.00 | 58 | 1008.2 |
| 20260505034529 | 56 | 304 | 1.0 | 6.0 | 0.00 | 0.00 | 0.00 | 57 | 1008.3 |
| 20260505033033 | 57 | 266 | 1.0 | 4.0 | 0.00 | 0.00 | 0.00 | 56 | 1008.2 |
| 20260505031538 | 58 | 309 | 2.0 | 7.0 | 0.00 | 0.00 | 0.00 | 54 | 1008.0 |
| 20260505030030 | 59 | 298 | 2.0 | 7.0 | 0.00 | 0.00 | 0.00 | 53 | 1008.3 |
| 20260505024532 | 59 | 9 | 2.0 | 11.0 | 0.00 | 0.00 | 0.00 | 51 | 1008.2 |
| 20260505023033 | 60 | 341 | 3.0 | 13.0 | 0.00 | 0.00 | 0.00 | 51 | 1008.3 |
| 20260505021536 | 60 | 63 | 2.0 | 8.0 | 0.00 | 0.00 | 0.00 | 51 | 1008.6 |
| 20260505020037 | 60 | 9 | 2.0 | 9.0 | 0.00 | 0.00 | 0.00 | 50 | 1008.3 |
| 20260505014530 | 60 | 344 | 5.0 | 15.0 | 0.00 | 0.00 | 0.00 | 49 | 1008.2 |
| 20260505013031 | 60 | 9 | 3.0 | 10.0 | 0.00 | 0.00 | 0.00 | 48 | 1008.4 |
| 20260505011536 | 61 | 27 | 3.0 | 10.0 | 0.00 | 0.00 | 0.00 | 47 | 1008.0 |
| 20260505010057 | 61 | 325 | 2.0 | 9.0 | 0.00 | 0.00 | 0.00 | 47 | 1007.9 |
| 20260505004530 | 61 | 44 | 3.0 | 9.0 | 0.00 | 0.00 | 0.00 | 47 | 1007.9 |
| 20260505003037 | 62 | 85 | 2.0 | 9.0 | 0.00 | 0.00 | 0.00 | 46 | 1007.6 |
| 20260505001530 | 62 | 9 | 2.0 | 9.0 | 0.00 | 0.00 | 0.00 | 44 | 1007.6 |
| 20260505000043 | 63 | 47 | 2.0 | 8.0 | 0.00 | 0.00 | 0.00 | 44 | 1007.4 |
| 20260504234534 | 64 | 0 | 2.0 | 9.0 | 0.00 | 0.00 | 0.00 | 43 | 1007.2 |
| 20260504233033 | 65 | 0 | 2.0 | 8.0 | 0.00 | 0.00 | 0.00 | 42 | 1007.4 |
| 20260504231532 | 66 | 65 | 3.0 | 7.0 | 0.00 | 0.00 | 0.00 | 39 | 1007.2 |
| 20260504230040 | 66 | 51 | 2.0 | 8.0 | 0.00 | 0.00 | 0.00 | 39 | 1007.1 |
| 20260504224529 | 67 | 221 | 2.0 | 7.0 | 0.00 | 0.00 | 0.00 | 38 | 1007.0 |
| 20260504223035 | 69 | 31 | 2.0 | 8.0 | 0.00 | 0.00 | 0.00 | 36 | 1006.5 |
| 20260504221542 | 70 | 71 | 2.0 | 12.0 | 0.00 | 0.00 | 0.00 | 34 | 1006.9 |
| 20260504220035 | 70 | 321 | 3.0 | 11.0 | 0.00 | 0.00 | 0.00 | 34 | 1006.9 |
| 20260504214530 | 70 | 68 | 3.0 | 12.0 | 0.00 | 0.00 | 0.00 | 33 | 1006.8 |
| 20260504213047 | 70 | 50 | 3.0 | 11.0 | 0.00 | 0.00 | 0.00 | 34 | 1007.0 |
| 20260504211534 | 71 | 74 | 3.0 | 11.0 | 0.00 | 0.00 | 0.00 | 34 | 1007.1 |
| 20260504210034 | 71 | 292 | 3.0 | 11.0 | 0.00 | 0.00 | 0.00 | 34 | 1007.3 |